Location: ???????
(55.4362°N, 38.1183°E)
Time: 00:33:44
(UTC+00:00)

Cosmos 1892 Rocket - Pass Details

Date: 17 June 2021
Orbit: 605 x 634 km, 82.5° (Epoch: 05 August)

Event Time Altitude Azimuth Distance (km) Brightness Sun altitude
Exits shadow 20:52:22 13° 192° (SSW) 1,776 5.3 -10.8°
Maximum altitude 20:56:15 87° 279° (W) 636 3.6 -10.9°
Drops below altitude 10° 21:00:45 10° 12° (NNE) 2,023 7.5 -10.9°
Sets 21:03:01 0° 12° (NNE) 2,939 8.6 -11.0°
